Temperature
18 18 17 17 17 17 17 17 17 17 16 17 16 16 16 16 16 16 16 16 16 16 16 16 16 16 16 16 15 15 15 16 15 15 15 15 15 15 15 15 15 14 15
18 17 17 17 17 17 16 16 16 16 16 16 16 16 16 16 16 16 16 16 16 16 16 16 15 15 15 15 15 15 15 15 15 15 15 14 15 14 15 15 14 15 14
17 17 17 17 17 16 16 16 16 16 16 16 16 16 16 16 16 16 15 15 15 15 15 15 15 15 15 15 15 15 15 15 14 14 14 14 14 14 14 14 14 14 14
17 17 16 16 16 16 16 16 16 16 15 15 15 15 15 15 15 15 15 15 15 15 15 15 15 14 14 14 14 14 14 14 14 14 14 14 14 14 14 14 14 14 14
16 16 16 16 16 16 16 16 15 15 15 15 15 15 15 15 15 15 15 15 15 14 14 15 14 14 14 14 14 14 14 14 14 14 14 14 14 14 14 14 14 14 14
16 16 16 16 16 15 15 15 15 15 15 15 14 14 14 14 15 15 15 14 14 14 14 14 14 14 14 14 14 14 14 14 14 14 14 14 13 14 14 14 14 14 14
16 16 15 15 15 15 15 15 15 15 14 14 14 14 14 14 14 14 15 14 14 14 14 14 14 14 14 14 14 14 14 14 14 13 13 13 13 13 13 13 13 13 14
15 15 15 15 15 15 15 14 14 14 14 14 14 14 14 14 14 14 14 14 13 13 13 13 13 13 13 13 13 13 13 13 13 13 13 13 13 13 13 13 13 13 13
15 15 14 14 14 14 14 14 14 14 14 14 13 13 13 13 13 13 13 13 13 13 13 13 12 13 13 13 13 13 13 13 13 13 13 13 13 13 12 12 12 13 13
14 14 14 14 14 14 14 14 14 14 13 13 13 13 13 13 13 13 13 12 12 12 12 12 12 12 12 12 12 12 12 12 12 12 12 12 12 12 12 12 12 12 13
14 14 14 13 14 14 14 14 13 13 13 13 13 13 13 13 13 13 12 12 12 12 12 12 12 12 12 12 12 12 12 12 12 12 12 12 11 12 12 11 11 11 12
13 13 13 13 13 13 13 13 13 13 13 13 12 12 12 12 12 12 12 12 12 11 11 11 11 11 11 11 11 11 11 11 11 11 11 11 11 11 11 11 11 11 11
13 13 13 13 13 13 13 13 12 12 13 12 12 12 12 11 11 12 12 12 11 11 11 11 11 11 11 11 11 11 11 11 11 11 11 11 11 11 11 11 11 11 11
13 12 13 13 13 12 12 12 12 12 12 12 12 12 12 11 11 11 11 11 11 11 10 10 10 10 10 10 10 10 10 10 10 10 10 10 10 10 10 10 10 10 10
13 12 12 12 12 12 12 12 12 12 12 12 12 12 11 11 11 11 11 11 11 10 10 10 10 10 10 10 10 10 10 10 10 10 10 10 10 10 10 10 10 10 10
13 12 13 13 12 12 12 12 12 12 12 11 11 11 11 11 11 11 11 11 10 10 10 10 10 10 10 10 10 10 9 9 9 9 9 10 10 10 10 10 10 10 10
12 12 12 13 12 12 12 12 12 12 11 11 11 11 11 11 11 11 10 10 10 10 10 10 9 9 9 9 9 9 9 9 9 9 9 9 9 9 9 9 9 9 9
12 12 12 12 12 12 12 12 12 12 12 11 11 11 11 11 10 10 10 10 10 10 9 9 9 9 9 9 9 9 9 9 9 8 9 9 9 9 9 9 9 8 8
12 12 12 12 12 12 12 12 12 11 11 11 11 11 11 11 10 10 10 10 9 9 9 9 9 9 9 9 9 9 9 8 8 8 8 8 8 8 8 8 8 8 8
12 12 12 12 12 12 12 12 11 11 11 11 11 11 11 10 10 10 10 9 9 9 9 9 9 9 9 9 8 8 8 8 8 8 8 8 8 8 8 7 8 8 7
12 12 12 12 12 12 12 12 11 11 11 11 11 10 10 10 10 10 10 10 9 9 9 9 9 9 9 8 8 8 8 8 8 8 8 8 7 7 7 7 7 7 7
11 12 11 11 11 11 11 11 11 11 11 10 10 10 10 10 10 9 9 9 9 9 9 9 9 9 8 8 8 8 8 8 7 7 7 7 7 7 7 7 7 7 7
11 11 11 11 11 11 10 11 11 11 10 10 10 10 10 9 9 9 9 9 9 9 8 8 8 8 8 8 8 8 7 7 7 7 7 7 7 7 7 7 7 6 7
11 11 11 11 11 11 11 10 10 10 10 10 10 10 9 9 9 9 9 9 8 8 8 8 8 8 8 8 8 7 7 7 7 7 7 6 6 6 6 6 6 6 6
10 11 11 11 10 10 10 10 10 10 10 10 10 9 9 9 9 9 8 8 8 8 8 8 8 8 8 8 7 7 7 7 7 7 6 6 6 6 6 6 6 6 6
10 10 10 10 10 10 10 10 9 9 9 9 9 9 9 9 9 8 8 8 8 8 8 8 7 7 7 7 7 7 7 7 7 7 6 6 6 6 6 6 6 6 6
Wind_Speed
3 2 2 1 1 1 1 1 1 1 1 1 1 1 1 1 1 1 1 1 1 1 1 2 2 2 3 3 3 3 4 4 5 5 4 3 3 4 4 5 6 7 6
3 3 2 2 1 1 1 1 1 1 1 1 1 1 1 1 1 1 2 2 2 2 2 2 2 2 3 3 3 4 4 4 5 5 4 4 5 5 5 6 5 6 6
2 3 2 1 1 1 1 1 1 1 1 1 2 2 2 2 2 2 2 3 3 3 3 3 3 3 4 4 4 4 4 4 4 5 5 4 5 5 5 5 6 5 7
1 1 1 1 1 1 1 1 2 2 2 2 2 2 1 2 2 2 3 3 3 3 3 3 3 4 4 4 4 5 5 5 4 5 5 5 5 5 5 5 5 5 6
1 1 1 1 1 0 0 1 1 2 2 2 1 2 1 2 2 2 3 3 3 3 3 3 3 2 3 3 4 4 4 4 4 5 5 5 5 4 5 5 5 5 5
1 1 1 1 1 1 0 0 1 1 1 1 2 2 2 2 3 3 3 3 2 2 3 3 3 2 2 2 3 3 4 4 5 5 5 5 6 6 5 6 5 6 5
1 1 1 1 1 1 1 1 1 1 1 2 2 2 2 2 3 2 3 3 3 3 3 3 3 2 2 4 3 4 4 4 5 7 7 7 6 6 6 7 6 6 7
1 1 1 1 1 1 1 1 1 2 2 2 2 2 2 2 2 2 4 4 3 3 3 3 3 2 3 4 4 3 4 4 4 6 6 7 6 6 6 7 7 7 7
1 0 1 1 1 2 1 2 2 2 2 2 2 2 2 2 2 2 4 3 2 2 2 2 2 3 2 3 4 4 4 4 2 2 3 4 4 5 5 5 6 6 6
1 2 2 2 2 2 2 2 2 2 2 3 2 2 2 2 1 2 4 3 2 2 2 2 1 2 3 3 4 4 5 5 5 4 3 4 5 5 5 6 6 6 6
2 2 2 2 2 2 2 2 2 2 2 3 3 2 2 2 1 0 2 3 2 2 2 2 1 2 1 3 4 4 5 6 5 4 4 3 3 3 4 4 5 6 7
1 1 1 2 2 1 2 2 2 2 2 2 3 3 2 1 1 1 1 3 4 3 3 2 1 1 1 3 3 4 5 5 4 4 4 4 4 4 4 4 5 5 6
1 1 1 1 1 2 2 2 2 2 3 2 2 2 2 1 0 1 2 2 4 3 2 1 1 3 4 3 3 4 4 4 4 4 4 4 4 4 4 4 5 5 6
1 1 2 2 2 2 2 2 2 2 2 2 2 2 2 1 2 2 1 1 2 2 2 2 4 5 4 3 3 3 4 4 4 5 5 4 4 4 4 4 4 4 5
2 2 2 2 2 2 1 2 2 2 2 3 3 2 2 2 2 3 2 2 2 3 3 2 1 1 1 1 2 2 3 3 3 4 4 4 4 4 4 4 4 5 5
2 2 2 2 2 2 2 1 1 2 2 2 2 3 1 1 1 1 2 4 5 5 3 1 2 2 2 2 2 2 2 2 3 3 3 4 4 4 4 4 4 4 5
3 3 2 2 2 2 2 2 2 3 5 6 5 4 4 2 2 2 3 4 4 3 2 2 3 3 3 3 3 3 3 2 3 3 3 4 4 4 4 4 4 4 5
4 2 3 3 2 3 3 3 3 3 3 3 5 7 7 7 6 5 4 3 2 2 3 4 4 4 4 4 4 4 4 3 3 4 4 4 4 4 4 5 4 5 5
4 3 3 3 3 3 3 3 4 4 4 3 3 3 6 7 7 7 5 3 3 4 4 5 5 5 5 4 4 4 4 4 4 4 4 4 4 4 4 5 5 4 5
4 3 4 3 3 3 3 4 4 4 4 4 4 3 2 3 3 3 4 4 4 5 5 5 5 5 5 5 5 5 5 4 4 5 4 4 4 5 5 5 5 5 5
4 3 5 4 3 3 3 4 4 4 4 4 4 3 4 5 4 4 4 5 5 5 5 6 5 5 5 5 5 5 6 5 5 5 4 4 4 5 5 5 5 6 6
4 4 4 4 4 4 4 4 4 4 5 5 5 4 6 6 5 5 5 5 5 5 5 5 5 5 5 5 5 5 6 5 5 5 5 5 5 5 6 6 6 5 5
5 5 5 4 4 4 5 5 5 5 5 5 5 5 5 5 5 5 5 5 5 5 5 5 6 6 5 5 5 5 6 6 5 5 5 5 5 6 6 6 7 7 6
6 6 6 5 5 5 5 5 5 5 5 5 5 5 5 5 5 5 5 5 5 5 5 5 6 7 7 6 5 6 5 6 6 6 6 6 6 6 6 6 6 7 6
5 5 5 5 5 5 5 5 6 5 5 5 5 5 5 5 5 5 5 5 6 5 5 5 5 6 7 7 6 6 5 5 6 7 6 6 7 7 6 6 6 6 6
5 5 5 5 5 5 5 6 6 6 6 5 5 5 5 5 5 4 4 5 5 5 5 5 5 6 7 6 6 6 4 4 5 7 7 6 6 6 6 5 6 5 5
Wind_Direction
174 185 196 197 198 202 216 237 250 263 270 270 288 282 256 228 215 210 241 250 253 263 264 243 252 262 255 248 249 251 253 251 250 256 253 249 251 258 261 259 250 247 226
167 173 175 177 186 210 218 240 244 252 259 258 278 273 261 237 218 215 233 236 242 250 258 259 259 251 252 256 253 251 253 250 247 253 254 253 251 250 252 255 253 250 248
159 167 163 173 192 215 235 256 244 244 266 273 268 265 259 244 228 230 238 240 240 249 255 256 259 256 255 255 257 255 253 248 245 246 253 261 260 259 257 257 258 256 252
128 140 145 163 193 234 253 260 256 251 255 264 262 265 260 268 268 251 236 238 241 246 251 256 256 257 257 259 256 255 253 250 241 244 249 249 253 255 255 257 255 251 255
89 86 75 60 56 351 289 280 271 264 253 250 257 264 250 249 284 282 252 237 239 247 252 257 256 271 296 286 281 265 255 252 247 246 250 254 257 257 257 255 258 262 256
73 52 51 48 34 11 346 332 325 334 323 298 275 278 285 307 21 356 303 259 248 250 260 265 258 249 264 263 289 298 288 263 262 258 256 263 265 261 261 264 263 266 267
79 43 25 31 27 7 355 348 334 332 332 328 312 296 290 346 21 349 310 270 256 259 264 271 272 274 278 272 260 249 264 284 275 266 267 272 275 274 270 266 264 263 268
90 42 8 320 317 312 310 316 292 279 286 291 301 300 297 335 359 325 298 261 261 257 257 265 272 275 285 284 269 265 264 263 258 254 262 272 280 285 275 270 273 264 262
143 235 275 276 276 277 273 278 285 283 277 272 279 295 296 313 349 325 295 267 264 258 261 274 287 276 335 304 266 268 274 277 257 255 266 274 293 289 284 279 276 270 268
209 223 242 260 262 265 268 271 270 268 270 272 274 277 284 298 336 325 291 278 275 266 257 251 2 341 349 311 266 268 273 281 285 277 259 249 256 254 248 261 270 272 275
224 232 243 252 252 256 264 262 255 257 268 274 275 268 272 292 278 333 297 292 290 280 274 271 317 60 328 303 287 283 289 288 278 269 267 267 264 263 260 260 270 274 277
224 232 251 267 269 252 250 255 256 259 258 266 271 278 278 278 313 223 220 272 298 273 271 276 293 135 250 276 287 309 302 287 280 280 279 281 281 282 280 275 274 274 279
233 248 257 264 270 260 248 248 247 249 261 270 271 278 290 309 294 173 198 241 278 271 280 323 284 231 228 239 241 261 269 275 282 282 284 286 288 294 290 281 274 267 269
279 271 261 261 259 256 262 261 271 280 274 266 267 284 299 328 334 331 310 274 247 255 269 236 216 224 235 250 247 252 262 272 275 278 282 284 286 287 286 289 284 279 278
288 271 263 259 261 258 262 303 286 298 300 285 280 281 294 305 333 354 330 324 317 310 290 273 300 323 315 303 303 301 288 282 280 281 282 285 291 296 298 298 296 291 286
277 270 269 273 270 259 241 236 161 228 202 228 268 290 298 334 356 354 315 316 310 293 283 284 282 284 289 288 289 289 287 299 304 303 301 301 296 294 295 295 294 294 297
280 278 277 279 275 273 273 266 250 214 203 211 214 220 237 248 218 235 255 267 266 267 252 273 278 277 277 278 275 278 282 287 299 294 290 294 296 294 295 297 296 297 300
273 262 262 263 268 272 273 275 271 267 259 249 211 200 209 215 216 227 236 246 252 235 265 276 277 276 277 278 276 279 282 284 285 283 283 287 290 296 298 298 297 304 303
273 272 264 268 263 266 273 280 282 279 278 275 275 220 206 210 208 216 211 240 263 265 269 274 277 278 277 277 276 273 274 278 284 283 282 288 285 288 293 295 297 301 294
256 269 264 260 258 263 271 277 281 278 280 277 274 282 265 249 261 249 234 249 260 268 273 272 273 277 275 274 273 271 270 271 272 272 281 285 284 284 284 284 285 286 284
269 245 226 251 259 266 272 276 280 281 287 285 279 275 266 265 267 265 261 260 262 267 273 275 274 273 271 271 272 270 269 269 267 273 280 280 281 283 284 283 283 283 286
274 272 260 256 260 267 276 279 280 279 283 286 283 257 227 249 263 267 267 266 267 270 273 273 274 272 271 273 274 272 272 274 276 277 278 280 278 281 282 279 279 284 288
265 265 264 259 260 256 263 272 277 280 280 281 283 277 265 264 267 269 271 273 273 275 278 274 271 274 276 273 271 268 267 270 277 283 281 276 274 276 278 279 280 280 279
261 261 262 261 259 263 267 273 276 277 278 279 282 283 276 267 268 272 276 281 281 279 279 278 276 276 276 276 273 271 272 279 279 271 270 271 271 273 273 273 275 276 274
263 264 266 267 265 267 270 274 276 278 281 282 284 285 282 278 275 276 279 280 279 281 284 287 289 284 280 278 279 286 298 282 273 273 267 265 267 267 270 271 272 280 280
270 270 268 268 268 271 274 274 277 281 282 283 284 285 285 282 279 278 278 280 281 281 284 288 291 292 293 289 288 298 293 269 262 268 265 261 263 264 268 269 271 273 276
Height
1526 1527 1527 1528 1528 1528 1528 1528 1528 1527 1527 1526 1526 1526 1526 1525 1525 1524 1525 1524 1524 1524 1524 1524 1524 1524 1524 1525 1525 1525 1525 1525 1524 1524 1524 1523 1523 1523 1522 1522 1522 1521 1521
1525 1525 1526 1526 1526 1527 1527 1526 1526 1526 1525 1525 1524 1524 1524 1524 1523 1523 1522 1522 1522 1522 1522 1522 1522 1522 1522 1522 1522 1522 1522 1522 1522 1520 1520 1520 1519 1519 1518 1518 1518 1518 1517
1524 1524 1525 1525 1525 1525 1525 1525 1524 1524 1524 1523 1523 1522 1522 1522 1521 1521 1520 1520 1520 1520 1520 1520 1520 1520 1519 1519 1519 1519 1519 1519 1518 1518 1517 1517 1516 1516 1515 1515 1514 1513 1514
1523 1523 1524 1523 1523 1523 1523 1523 1523 1522 1522 1521 1521 1521 1520 1520 1519 1518 1518 1518 1518 1517 1517 1517 1517 1517 1516 1516 1516 1516 1516 1515 1515 1515 1514 1513 1513 1512 1511 1511 1510 1510 1510
1522 1522 1522 1522 1522 1522 1521 1521 1521 1520 1520 1519 1519 1518 1518 1518 1517 1516 1515 1515 1515 1515 1514 1514 1514 1513 1513 1513 1513 1513 1512 1512 1512 1512 1511 1510 1509 1508 1507 1507 1507 1506 1506
1520 1520 1520 1520 1520 1520 1519 1519 1519 1518 1518 1518 1517 1516 1516 1515 1514 1513 1512 1512 1512 1512 1511 1511 1511 1510 1510 1510 1510 1509 1509 1509 1508 1508 1507 1506 1504 1503 1503 1503 1503 1503 1502
1519 1519 1519 1519 1518 1518 1517 1517 1516 1516 1516 1515 1514 1514 1513 1512 1511 1510 1510 1509 1509 1509 1508 1508 1508 1508 1507 1506 1506 1506 1505 1505 1504 1504 1503 1502 1501 1500 1499 1499 1499 1499 1498
1517 1517 1517 1517 1516 1516 1515 1514 1514 1514 1513 1512 1512 1511 1510 1509 1509 1508 1507 1506 1506 1506 1505 1505 1504 1503 1503 1503 1502 1502 1501 1501 1500 1500 1499 1498 1497 1496 1496 1496 1495 1495 1494
1515 1515 1515 1515 1514 1514 1513 1513 1512 1511 1511 1510 1509 1508 1507 1506 1506 1505 1504 1504 1503 1502 1502 1501 1500 1500 1500 1499 1499 1498 1497 1497 1497 1496 1495 1494 1493 1492 1492 1492 1492 1492 1491
1514 1513 1513 1513 1513 1512 1512 1511 1510 1509 1509 1508 1507 1506 1505 1504 1502 1502 1501 1501 1500 1500 1499 1498 1498 1497 1497 1496 1495 1495 1494 1493 1493 1492 1491 1490 1489 1488 1488 1488 1488 1488 1487
1513 1512 1512 1511 1511 1510 1509 1508 1508 1507 1507 1506 1505 1504 1503 1501 1500 1499 1498 1498 1498 1497 1496 1496 1495 1494 1494 1493 1492 1491 1491 1490 1490 1489 1488 1488 1487 1485 1485 1484 1484 1484 1484
1511 1510 1510 1509 1509 1509 1508 1507 1506 1505 1505 1504 1503 1502 1501 1499 1497 1496 1495 1495 1494 1494 1493 1493 1493 1492 1491 1490 1489 1489 1488 1488 1488 1487 1486 1485 1484 1483 1482 1481 1480 1480 1479
1509 1509 1508 1507 1507 1506 1506 1505 1504 1504 1503 1502 1501 1501 1499 1498 1496 1495 1493 1493 1492 1491 1491 1491 1490 1489 1488 1487 1487 1486 1486 1486 1485 1484 1483 1483 1482 1480 1479 1478 1477 1476 1475
1508 1507 1506 1505 1505 1504 1504 1504 1503 1502 1501 1500 1499 1499 1498 1497 1495 1494 1492 1491 1490 1490 1489 1488 1488 1487 1486 1485 1484 1484 1483 1483 1482 1481 1481 1480 1479 1478 1477 1476 1475 1474 1473
1506 1505 1504 1504 1503 1502 1501 1500 1500 1499 1498 1498 1498 1497 1496 1495 1494 1492 1491 1490 1489 1488 1488 1487 1486 1485 1484 1484 1483 1482 1481 1480 1479 1478 1478 1477 1476 1475 1474 1473 1472 1471 1470
1504 1504 1503 1502 1501 1500 1499 1498 1497 1497 1496 1496 1495 1495 1494 1493 1492 1490 1489 1488 1487 1487 1486 1485 1484 1483 1482 1481 1480 1479 1478 1477 1476 1475 1474 1474 1473 1472 1471 1470 1469 1468 1467
1502 1502 1501 1500 1499 1498 1497 1497 1496 1495 1494 1493 1492 1492 1491 1490 1489 1488 1488 1487 1486 1485 1484 1483 1482 1481 1480 1479 1478 1476 1475 1474 1473 1472 1471 1471 1470 1469 1468 1467 1466 1465 1464
1500 1499 1498 1497 1497 1496 1495 1495 1494 1493 1492 1490 1490 1489 1488 1487 1487 1486 1485 1484 1483 1482 1482 1481 1480 1479 1478 1477 1476 1474 1473 1472 1471 1470 1469 1468 1467 1466 1465 1464 1463 1462 1461
1498 1497 1496 1495 1494 1493 1493 1492 1491 1490 1489 1488 1487 1486 1485 1484 1483 1483 1481 1480 1480 1480 1479 1478 1477 1476 1475 1474 1473 1472 1470 1469 1468 1467 1466 1465 1464 1463 1462 1461 1460 1458 1457
1494 1493 1492 1492 1492 1491 1490 1489 1488 1487 1485 1484 1483 1483 1482 1481 1480 1479 1478 1477 1477 1476 1476 1475 1474 1473 1472 1471 1470 1468 1467 1466 1465 1464 1463 1462 1461 1461 1460 1458 1457 1456 1455
1492 1491 1489 1489 1488 1487 1487 1486 1484 1483 1482 1481 1480 1480 1478 1477 1476 1476 1475 1474 1473 1473 1472 1471 1470 1469 1468 1467 1466 1465 1464 1463 1462 1460 1459 1459 1458 1457 1457 1456 1454 1453 1452
1489 1488 1487 1486 1485 1484 1484 1482 1481 1480 1478 1477 1476 1476 1474 1474 1473 1473 1472 1471 1470 1469 1469 1468 1467 1465 1464 1463 1462 1461 1460 1459 1458 1457 1456 1455 1455 1454 1453 1452 1451 1450 1449
1485 1484 1483 1483 1482 1481 1480 1479 1478 1476 1475 1474 1473 1472 1471 1470 1469 1469 1468 1468 1467 1465 1464 1463 1463 1461 1460 1459 1458 1457 1456 1454 1453 1452 1452 1451 1451 1450 1450 1449 1447 1446 1445
1482 1481 1480 1480 1479 1478 1477 1476 1475 1474 1472 1471 1469 1468 1467 1466 1465 1465 1464 1463 1462 1461 1460 1459 1458 1457 1455 1454 1453 1452 1451 1450 1449 1448 1447 1447 1447 1446 1446 1445 1444 1443 1442
1478 1478 1477 1476 1475 1475 1474 1473 1472 1470 1469 1468 1467 1465 1464 1462 1461 1460 1459 1458 1457 1456 1455 1454 1453 1452 1450 1449 1448 1447 1446 1445 1444 1444 1443 1443 1442 1442 1441 1441 1440 1439 1438
1475 1474 1474 1473 1472 1471 1470 1469 1468 1467 1466 1465 1463 1461 1460 1459 1457 1456 1455 1454 1453 1452 1450 1449 1448 1446 1445 1444 1443 1442 1441 1440 1439 1439 1438 1438 1438 1438 1437 1437 1436 1435 1434